Miscellaneous Local Product
Issued by NWS Hastings, NE

Home | Current Version | Previous Version | Text Only | Print | Product List | Glossary On
Versions: 1 2 3 4 5 6 7 8 9 10 11 12 13 14 15 16 17 18 19 20 21 22 23 24 25 26 27 28 29 30 31 32 33 34 35 36 37 38 39 40 41 42 43 44 45 46 47 48 49 50
000
AXUS43 KGID 291102
MISGRI

GID CWA HOURLY WEATHER ROUNDUP
NATIONAL WEATHER SERVICE HASTINGS NE
600 AM CDT FRI MAY 29 2015

NOTE: "FAIR" INDICATES FEW OR NO CLOUDS BELOW 12,000 FEET WITH NO
SIGNIFICANT WEATHER AND/OR OBSTRUCTIONS TO VISIBILITY.

...SOUTH CENTRAL NEBRASKA...

CITY           SKY/WX    TMP DP  RH WIND       PRES   REMARKS
GRAND ISLAND   PTCLDY    58  56  93 S8        29.92R
HASTINGS       PTCLDY    58  56  93 CALM      29.93R
KEARNEY        MOCLDY    57  52  82 CALM      29.95R
ORD            CLOUDY    58  55  90 W9        29.90R
YORK           MOCLDY    59  59 100 SW8       29.92R
AURORA         PTCLDY    60  60 100 SW7       29.91R
LEXINGTON      PTCLDY    56  55  94 NW7       29.97R
HOLDREGE       PTCLDY    56  53  86 NW6       29.95R
HEBRON         MOCLDY    61  57  89 SW5       29.93S

...NEBRASKA PANHANDLE...

CITY           SKY/WX    TMP DP  RH WIND       PRES   REMARKS
CHADRON        CLOUDY    56  52  86 NW6       30.06R
ALLIANCE       PTCLDY    46  45  96 W7        30.05R
SCOTTSBLUFF    CLOUDY    52  49  89 W8        30.08S
SIDNEY         CLEAR     50  47  89 NW10      30.09R

...WESTERN AND NORTH CENTRAL NEBRASKA...

CITY           SKY/WX    TMP DP  RH WIND       PRES   REMARKS
VALENTINE      CLOUDY    57  54  89 NW13      29.95R
AINSWORTH      MOCLDY    57  55  94 W12       29.94R
ONEILL         CLOUDY    59  58  97 W3        29.89S
BROKEN BOW     MOCLDY    58  55  90 W7        29.94S
IMPERIAL       CLOUDY    56  52  86 W6        30.03R
NORTH PLATTE   PTCLDY    52  49  89 W7        29.99R
MCCOOK         CLEAR     55  52  89 NW14      29.99R

...EASTERN NEBRASKA...

CITY           SKY/WX    TMP DP  RH WIND       PRES   REMARKS
NORFOLK        CLOUDY    64  59  83 W6        29.86R
SO SIOUX CITY  CLOUDY    66  62  87 S7        29.84S
TEKAMAH        CLOUDY    65  63  93 S12       29.86R
COLUMBUS       CLOUDY    61  55  82 S7        29.90R
ALBION         DRIZZLE   60  57  89 NW5       29.88S
OMAHA EPPLEY   CLOUDY    66  63  90 S13       29.89R
OFFUTT AFB     CLOUDY    65  63  93 S8        29.89R
MILLARD        CLOUDY    65  63  91 S7        29.89R
LINCOLN        CLOUDY    64  61  90 SW3       29.90R
NEBRASKA CITY  LGT RAIN  64  64  99 SW9       29.92R
BEATRICE       CLOUDY    61  59  93 SW3       29.92R
FALLS CITY     CLOUDY    64  62  93 S10       29.92R

...NORTHERN KANSAS...

CITY           SKY/WX    TMP DP  RH WIND       PRES   REMARKS
GOODLAND       PTCLDY    52  49  89 W7        30.04R
HILL CITY      PTCLDY    55  52  89 W7        29.96S
NORTON         SUNNY     55  48  76 W8        29.94S
SMITH CENTER   CLEAR     54  54 100 W5        29.96R
HAYS           MOCLDY    55  46  71 CALM      29.98R
RUSSELL        MOCLDY    57  56  96 S5        29.96R
CONCORDIA      CLOUDY    59  58  96 W6        29.94R
SALINA         CLOUDY    61  58  90 CALM      29.95R
TOPEKA         CLOUDY    67  63  87 S8        29.91F



USA.gov is the U.S. government's official web portal to all federal, state and local government web resources and services.